Regional Weather Roundup
Issued by NWS

Home | Current Version | Previous Version | Graphics & Text | Print | Product List | Glossary On
Versions: 1 2 3 4 5 6 7 8 9 10 11 12 13 14 15 16 17 18 19 20 21 22 23 24 25 26 27 28 29 30 31 32 33 34 35 36 37 38 39 40 41 42 43 44 45 46 47 48 49 50
000
ASUS43 KFSD 201902
RWRSD

WEATHER ROUNDUP FOR SOUTH DAKOTA
NATIONAL WEATHER SERVICE SIOUX FALLS SD
200 PM CDT SUN AUG 20 2017

NOTE: "FAIR" INDICATES FEW OR NO CLOUDS BELOW 12,000 FEET WITH NO
SIGNIFICANT WEATHER AND/OR OBSTRUCTIONS TO VISIBILITY.


SDZ001>005-009-010-012>017-202000-
NORTHWEST AND NORTH CENTRAL SOUTH DAKOTA

CITY           SKY/WX    TMP DP  RH WIND       PRES   REMARKS
BUFFALO          N/A     78  41  26 SE13G20   29.99F
FAITH            N/A     75  43  31 E10       30.06F
MOBRIDGE       CLOUDY    73  51  46 N10       30.04S
$$

SDZ012>016-024>037-041>051-057-063-072>074-202000-
SOUTHWEST AND SOUTH CENTRAL SOUTH DAKOTA

CITY           SKY/WX    TMP DP  RH WIND       PRES   REMARKS
RAPID CTY ARPT SUNNY     76  48  37 MISG      30.07F
PIERRE         SUNNY     79  54  41 N7        30.03S
CUSTER         SUNNY     70  46  42 E12G21    30.18F
ELLSWORTH AFB  SUNNY     76  49  39 CALM      30.07F
PHILIP         SUNNY     82  52  35 NE10      30.04F
PINE RIDGE     SUNNY     82  52  35 E13       30.06F
SPEARFISH      FAIR      75  46  35 E23G29    30.06F
WINNER         FAIR      83  58  42 E14       30.00S
$$

SDZ004>011-016>023-039-040-202000-
NORTHEAST SOUTH DAKOTA

CITY           SKY/WX    TMP DP  RH WIND       PRES   REMARKS
ABERDEEN       CLOUDY    69  52  54 NE12      30.03S
WATERTOWN      PTSUNNY   66  56  70 E7        30.02R
BROOKINGS      SUNNY     75  62  64 NE9       30.00F
SISSETON         N/A     72  57  59 N6        30.01R
$$

SDZ017-020-022-023-036>040-048>070-202000-
SOUTHEAST SOUTH DAKOTA

CITY           SKY/WX    TMP DP  RH WIND       PRES   REMARKS
SIOUX FALLS    MOSUNNY   83  71  67 NE6       29.97R
HURON          MOSUNNY   80  62  54 N8        29.99R
CHAMBERLAIN    SUNNY     83  59  44 NE10      29.99R
MITCHELL       SUNNY     81  65  58 E12       29.97F
YANKTON        SUNNY     83  67  58 E6        29.94F
$$

ABBREVIATIONS USED IN REMARKS
   TC - TEMPERATURE IN CELSIUS
  WCI - WIND CHILL INDEX
   HX - HEAT INDEX
  VSB - VISIBILITY





USA.gov is the U.S. government's official web portal to all federal, state and local government web resources and services.